Location: Newark
(48.0000°N, 67.0000°E)
Time: 16:22:33
(UTC+00:00)

Vanguard 2 - Visible Passes

Search period start: 19 February 2020 00:00
Search period end: 29 February 2020 00:00
Orbit: 552 x 2939 km, 32.9° (Epoch: 19 February)

Date Brightness Start Highest point End Pass type
(mag) Time Alt. Az. Time Alt. Az. Time Alt. Az.
19 Feb 10.9 01:51:56 10° WSW 02:06:05 45° S 02:22:20 10° ESE visible
19 Feb 10.7 22:03:52 28° SSE 22:03:52 28° SSE 22:15:57 10° E visible
20 Feb 10.5 00:05:16 25° SW 00:13:03 44° S 00:28:57 10° ESE visible
20 Feb 10.5 22:20:39 32° SSE 22:21:05 32° SSE 22:34:10 10° E visible
21 Feb 10.5 00:22:03 23° SW 00:30:39 45° S 00:46:40 10° ESE visible
21 Feb 11.4 20:36:01 12° ESE 20:36:01 12° ESE 20:37:27 10° ESE visible
21 Feb 10.3 22:37:24 36° SSE 22:38:28 36° SSE 22:52:12 10° ESE visible
22 Feb 10.6 00:38:49 19° WSW 00:48:17 44° S 01:04:17 10° ESE visible
22 Feb 11.2 20:52:46 16° ESE 20:52:46 16° ESE 20:56:23 10° ESE visible
22 Feb 10.2 22:54:10 38° S 22:55:56 39° SSE 23:10:06 10° ESE visible
23 Feb 10.7 00:55:34 16° WSW 01:05:57 43° S 01:21:46 10° SE visible
23 Feb 11.0 21:09:32 20° ESE 21:09:32 20° ESE 21:14:50 10° E visible
23 Feb 10.1 23:10:56 37° SSW 23:13:29 41° S 23:27:55 10° ESE visible
24 Feb 10.8 01:12:19 12° WSW 01:23:35 40° SSW 01:39:04 10° SE visible
24 Feb 10.8 21:26:17 24° SE 21:26:17 24° SE 21:33:01 10° ESE visible
24 Feb 10.0 23:27:41 36° SSW 23:31:05 41° S 23:45:37 10° ESE visible
25 Feb 10.9 01:29:29 10° WSW 01:41:13 36° SSW 01:56:09 10° SE visible
25 Feb 10.6 21:43:04 28° SE 21:43:04 28° SE 21:51:02 10° ESE visible
25 Feb 10.1 23:44:28 32° SW 23:48:43 40° S 00:03:11 10° ESE visible
26 Feb 10.9 01:47:31 10° WSW 01:58:49 32° SSW 02:12:57 10° SSE visible
26 Feb 10.4 21:59:52 31° SE 21:59:52 31° SE 22:08:55 10° ESE visible
27 Feb 10.1 00:01:16 28° SW 00:06:23 38° S 00:20:35 10° SE visible
27 Feb 10.2 22:16:41 34° SSE 22:16:41 34° SSE 22:26:41 10° ESE visible
28 Feb 10.3 00:18:05 23° SW 00:24:03 35° SSW 00:37:47 10° SE visible
28 Feb 11.3 20:32:07 10° ESE 20:32:07 10° ESE 20:32:08 10° ESE visible
28 Feb 10.1 22:33:32 35° SSE 22:33:32 35° SSE 22:44:20 10° ESE visible
